GSAT-29

Last updated on Sun Apr 12 2026 00:02:55 GMT+0000 (Coordinated Universal Time)

1 43698U 18089A 26101.46027507 .00000087 00000+0 00000+0 0 9990 2 43698 0.0526 74.8007 0002651 312.4202 33.2387 1.00270243 27115
UTC large
Height (km)
Speed (km/s)
/
Latitude / Longitude
Inclination (degrees)
Orbital Period (minutes)
Azimuth
Elevation
Range (km)
Doppler Factor

Next 0 passes for location: London (51.5072 / 0.1276)

Sorry there are no passes over London.
GSAT-29